TimeMST,TemperatureF,Dew PointF,Humidity,Sea Level PressureIn,VisibilityMPH,Wind Direction,Wind SpeedMPH,Gust SpeedMPH,PrecipitationIn,Events,Conditions,WindDirDegrees,DateUTC
12:16 AM,33.8,21.2,60,30.20,10.0,WSW,5.8,-,N/A,,Clear,240,2012-11-24 07:16:00
12:36 AM,35.6,19.4,52,30.18,10.0,South,3.5,-,N/A,,Clear,180,2012-11-24 07:36:00
12:56 AM,39.2,14.0,36,30.18,10.0,Calm,Calm,-,N/A,,Clear,0,2012-11-24 07:56:00
1:16 AM,37.4,17.6,45,30.17,10.0,Calm,Calm,-,N/A,,Clear,0,2012-11-24 08:16:00
1:36 AM,41.0,14.0,33,30.18,10.0,West,8.1,-,N/A,,Clear,280,2012-11-24 08:36:00
1:56 AM,41.0,12.2,31,30.17,10.0,SW,8.1,-,N/A,,Clear,220,2012-11-24 08:56:00
2:16 AM,42.8,12.2,29,30.16,10.0,NW,3.5,-,N/A,,Clear,310,2012-11-24 09:16:00
2:36 AM,59.0,-0.4,9,30.15,10.0,NW,20.7,36.8,N/A,,Clear,310,2012-11-24 09:36:00
2:56 AM,53.6,1.4,12,30.15,10.0,NW,3.5,-,N/A,,Clear,310,2012-11-24 09:56:00
3:16 AM,53.6,3.2,13,30.14,10.0,Calm,Calm,-,N/A,,Clear,0,2012-11-24 10:16:00
3:36 AM,46.4,10.4,23,30.13,10.0,Calm,Calm,-,N/A,,Clear,0,2012-11-24 10:36:00
3:56 AM,46.4,8.6,22,30.13,10.0,Calm,Calm,-,N/A,,Clear,0,2012-11-24 10:56:00
4:16 AM,51.8,3.2,14,30.11,10.0,WNW,4.6,-,N/A,,Clear,300,2012-11-24 11:16:00
4:36 AM,51.8,3.2,14,30.11,10.0,Calm,Calm,-,N/A,,Clear,0,2012-11-24 11:36:00
4:56 AM,50.0,8.6,19,30.11,10.0,SE,4.6,-,N/A,,Clear,140,2012-11-24 11:56:00
5:55 AM,50.0,3.2,15,30.10,20.0,Calm,Calm,-,N/A,,Mostly Cloudy,0,2012-11-24 12:55:00
6:50 AM,50.0,5.0,16,30.09,40.0,South,4.6,-,N/A,,Mostly Cloudy,190,2012-11-24 13:50:00
7:50 AM,57.2,1.4,10,30.09,60.0,West,13.8,-,N/A,,Mostly Cloudy,260,2012-11-24 14:50:00
8:57 AM,60.8,-2.2,8,30.08,60.0,WSW,19.6,33.4,N/A,,Mostly Cloudy,250,2012-11-24 15:57:00
9:58 AM,62.6,-2.2,7,30.07,60.0,WSW,25.3,32.2,N/A,,Mostly Cloudy,250,2012-11-24 16:58:00
10:47 AM,60.8,-0.4,8,30.05,60.0,WSW,35.7,44.9,N/A,,Mostly Cloudy,250,2012-11-24 17:47:00
11:50 AM,60.8,-0.4,8,30.04,60.0,WSW,20.7,28.8,N/A,,Mostly Cloudy,240,2012-11-24 18:50:00
12:50 PM,62.6,1.4,9,30.03,60.0,WSW,17.3,28.8,N/A,,Mostly Cloudy,250,2012-11-24 19:50:00
1:50 PM,62.6,1.4,9,30.07,60.0,West,15.0,20.7,N/A,,Mostly Cloudy,260,2012-11-24 20:50:00
2:51 PM,62.6,1.4,9,29.98,60.0,West,27.6,32.2,N/A,,Mostly Cloudy,280,2012-11-24 21:51:00
3:48 PM,64.4,1.4,8,29.99,60.0,West,23.0,34.5,N/A,,Mostly Cloudy,260,2012-11-24 22:48:00
4:50 PM,60.8,3.2,10,30.01,60.0,West,11.5,17.3,N/A,,Mostly Cloudy,260,2012-11-24 23:50:00
5:50 PM,59.0,3.2,11,30.02,30.0,West,11.5,-,N/A,,Mostly Cloudy,280,2012-11-25 00:50:00
6:46 PM,57.2,3.2,11,30.00,30.0,WNW,17.3,-,N/A,,Mostly Cloudy,290,2012-11-25 01:46:00
7:48 PM,57.2,3.2,11,29.97,30.0,West,28.8,38.0,N/A,,Mostly Cloudy,260,2012-11-25 02:48:00
8:46 PM,55.4,3.2,12,29.96,30.0,West,28.8,38.0,N/A,,Mostly Cloudy,260,2012-11-25 03:46:00
9:47 PM,55.4,3.2,12,30.01,30.0,West,11.5,-,N/A,,Mostly Cloudy,270,2012-11-25 04:47:00
10:16 PM,50.0,6.8,17,30.01,10.0,West,8.1,-,N/A,,Clear,270,2012-11-25 05:16:00
10:35 PM,51.8,5.0,15,30.01,10.0,West,15.0,21.9,N/A,,Clear,270,2012-11-25 05:35:00
10:56 PM,53.6,5.0,14,29.99,10.0,West,27.6,38.0,N/A,,Clear,270,2012-11-25 05:56:00
11:15 PM,53.6,5.0,14,29.97,10.0,West,27.6,33.4,N/A,,Clear,270,2012-11-25 06:15:00
11:36 PM,53.6,5.0,14,29.97,10.0,West,18.4,-,N/A,,Clear,260,2012-11-25 06:36:00
11:56 PM,51.8,5.0,15,29.99,10.0,NE,9.2,18.4,N/A,,Clear,50,2012-11-25 06:56:00